Capitol Logistics 326


CYHZ
Robert L. Stanfield International Airport
Halifax, CA
KMIA
Miami International Airport
Miami, US

Route Details

Aircraft Information
Primary: Boeing 767-300BDSF
Backup: Not Available
Route Data
Distance: 1403nm
Sched. Duration: 3h 39m
Avg. Duration: 3h 94m (+55m)
Times Flown: 6
Recm'd Route: YQI J585 ACK J62 JOANI SAWED J209 ORF J174 DIW SEELO AR22 JORAY HILEY7
Planned Altitude: 34,000ft
Origin Wx: CYHZ 290900Z 21011KT 15SM BKN033 BKN210 14/14 A3009 RMK SC5CI2 SLP190
Dest. Wx: KMIA 290953Z 11006KT 10SM FEW021 FEW100 BKN250 26/23 A3004 RMK AO2 SLP173 T02610228
Notes: LOBSTER KING

Financial History
Total Freight: 669,922lbs
Average Load: 111,654lbs/flt
Fuel Used: 279,842lbs
Avg. Fuel Used: 46,640lbs/flt
Fuel Expense: $223,874
Avg. Fuel Expense: $37,312
Avg. Fuel Cost: $0.80/lbs
Total Gross Income: $1,080,247
Pilot Pay: $1,414
Total Expenses: $116,979
Total Revenue: $732,635
Average Revenue: $180,041.22